25-11-2022, 00:00:09,    209,    2.1,    6.8,   0.00,   0.00, 1000.8,   70.6, -999.0
25-11-2022, 00:00:19,    206,    1.2,    6.7,   0.00,   0.00, 1000.8,   70.5, -999.0
25-11-2022, 00:00:29,    175,    1.7,    6.8,   0.00,   0.00, 1000.8,   70.4, -999.0
25-11-2022, 00:00:40,    194,    0.4,    6.7,   0.00,   0.00, 1000.8,   70.4, -999.0
25-11-2022, 00:00:49,    204,    1.2,    6.7,   0.00,   0.00, 1000.8,   70.5, -999.0
25-11-2022, 00:00:59,    222,    1.5,    6.6,   0.00,   0.00, 1000.8,   70.6, -999.0
25-11-2022, 00:01:09,    236,    0.7,    6.7,   0.00,   0.00, 1000.8,   70.7, -999.0
25-11-2022, 00:01:19,    197,    0.0,    6.7,   0.00,   0.00, 1000.7,   70.5, -999.0
25-11-2022, 00:01:29,    204,    1.9,    6.6,   0.00,   0.00, 1000.8,   70.7, -999.0
25-11-2022, 00:01:39,    219,    1.2,    6.7,   0.00,   0.00, 1000.8,   70.7, -999.0
25-11-2022, 00:01:49,    195,    0.9,    6.6,   0.00,   0.00, 1000.8,   70.6, -999.0
25-11-2022, 00:01:59,    198,    0.7,    6.6,   0.00,   0.00, 1000.8,   70.7, -999.0
25-11-2022, 00:02:09,    207,    2.7,    6.6,   0.00,   0.00, 1000.8,   70.8, -999.0
25-11-2022, 00:02:19,    198,    1.6,    6.7,   0.00,   0.00, 1000.9,   70.8, -999.0
25-11-2022, 00:02:29,    197,    0.2,    6.6,   0.00,   0.00, 1000.8,   70.7, -999.0
25-11-2022, 00:02:39,    197,    1.6,    6.6,   0.00,   0.00, 1000.8,   70.9, -999.0
25-11-2022, 00:02:49,    199,    1.8,    6.6,   0.00,   0.00, 1000.8,   70.9, -999.0
25-11-2022, 00:02:59,    199,    1.0,    6.5,   0.00,   0.00, 1000.8,   70.9, -999.0
25-11-2022, 00:03:09,    171,    0.6,    6.6,   0.00,   0.00, 1000.7,   70.7, -999.0
25-11-2022, 00:03:19,    198,    0.9,    6.6,   0.00,   0.00, 1000.8,   70.9, -999.0
25-11-2022, 00:03:29,    198,    0.0,    6.5,   0.00,   0.00, 1000.7,   70.5, -999.0
25-11-2022, 00:03:39,    216,    0.7,    6.5,   0.00,   0.00, 1000.8,   70.6, -999.0
25-11-2022, 00:03:49,    199,    2.6,    6.5,   0.00,   0.00, 1000.8,   70.9, -999.0
25-11-2022, 00:03:59,    200,    1.5,    6.6,   0.00,   0.00, 1000.8,   70.8, -999.0
25-11-2022, 00:04:08,    191,    1.1,    6.6,   0.00,   0.00, 1000.7,   70.7, -999.0
25-11-2022, 00:04:19,    178,    0.5,    6.6,   0.00,   0.00, 1000.8,   70.8, -999.0
25-11-2022, 00:04:29,    202,    1.0,    6.6,   0.00,   0.00, 1000.8,   70.9, -999.0
25-11-2022, 00:04:38,    201,    0.1,    6.5,   0.00,   0.00, 1000.7,   70.7, -999.0
25-11-2022, 00:04:48,    202,    0.5,    6.5,   0.00,   0.00, 1000.8,   70.7, -999.0
25-11-2022, 00:04:59,    149,    1.3,    6.6,   0.00,   0.00, 1000.8,   71.0, -999.0
25-11-2022, 00:05:09,    151,    0.0,    6.4,   0.00,   0.00, 1000.8,   70.8, -999.0
25-11-2022, 00:05:18,    177,    1.1,    6.5,   0.00,   0.00, 1000.9,   71.0, -999.0
25-11-2022, 00:05:28,    207,    0.9,    6.6,   0.00,   0.00, 1000.8,   71.0, -999.0
25-11-2022, 00:05:39,    236,    1.3,    6.5,   0.00,   0.00, 1000.8,   71.0, -999.0
25-11-2022, 00:05:48,    194,    0.5,    6.6,   0.00,   0.00, 1000.8,   71.0, -999.0
25-11-2022, 00:05:58,    244,    0.3,    6.5,   0.00,   0.00, 1000.8,   70.9, -999.0
25-11-2022, 00:06:08,    190,    0.7,    6.6,   0.00,   0.00, 1000.9,   71.0, -999.0
25-11-2022, 00:06:18,    190,    0.7,    6.6,   0.00,   0.00, 1000.8,   70.9, -999.0
25-11-2022, 00:06:28,    218,    0.9,    6.6,   0.00,   0.00, 1000.8,   71.1, -999.0
25-11-2022, 00:06:38,    215,    0.5,    6.5,   0.00,   0.00, 1000.9,   71.0, -999.0
25-11-2022, 00:06:48,    204,    0.1,    6.5,   0.00,   0.00, 1000.8,   70.8, -999.0
25-11-2022, 00:06:58,    209,    0.5,    6.6,   0.00,   0.00, 1000.8,   71.0, -999.0
25-11-2022, 00:07:08,    193,    1.4,    6.6,   0.00,   0.00, 1000.9,   71.1, -999.0
25-11-2022, 00:07:18,    242,    1.9,    6.6,   0.00,   0.00, 1000.9,   71.2, -999.0
25-11-2022, 00:07:28,    231,    3.1,    6.6,   0.00,   0.00, 1000.9,   71.2, -999.0
25-11-2022, 00:07:38,    220,    1.0,    6.6,   0.00,   0.00, 1000.9,   71.0, -999.0
25-11-2022, 00:07:48,    224,    1.0,    6.6,   0.00,   0.00, 1000.9,   71.0, -999.0
25-11-2022, 00:07:58,    228,    1.2,    6.7,   0.00,   0.00, 1000.9,   71.0, -999.0
25-11-2022, 00:08:08,    209,    1.8,    6.6,   0.00,   0.00, 1000.9,   71.0, -999.0
25-11-2022, 00:08:18,    212,    1.7,    6.7,   0.00,   0.00, 1000.9,   70.9, -999.0
25-11-2022, 00:08:28,    161,    3.3,    6.6,   0.00,   0.00, 1000.9,   70.7, -999.0
25-11-2022, 00:08:38,    189,    2.4,    6.7,   0.00,   0.00, 1000.9,   70.8, -999.0
25-11-2022, 00:08:48,    195,    2.8,    6.7,   0.00,   0.00, 1001.0,   70.6, -999.0
25-11-2022, 00:08:58,    206,    2.6,    6.8,   0.00,   0.00, 1000.9,   70.5, -999.0
25-11-2022, 00:09:08,    223,    1.0,    6.7,   0.00,   0.00, 1000.9,   70.5, -999.0
25-11-2022, 00:09:18,    187,    1.0,    6.7,   0.00,   0.00, 1000.9,   70.5, -999.0
25-11-2022, 00:09:28,    236,    0.4,    6.7,   0.00,   0.00, 1000.9,   70.4, -999.0
25-11-2022, 00:09:38,    197,    0.5,    6.6,   0.00,   0.00, 1000.9,   70.5, -999.0
25-11-2022, 00:09:48,    224,    2.3,    6.7,   0.00,   0.00, 1000.9,   70.5, -999.0
25-11-2022, 00:09:57,    202,    3.5,    6.7,   0.00,   0.00, 1000.9,   70.5, -999.0
25-11-2022, 00:10:08,    164,    2.0,    6.7,   0.00,   0.00, 1000.9,   70.5, -999.0
25-11-2022, 00:10:18,    211,    1.3,    6.7,   0.00,   0.00, 1000.8,   70.6, -999.0
25-11-2022, 00:10:28,    223,    1.7,    6.7,   0.00,   0.00, 1000.9,   70.6, -999.0
25-11-2022, 00:10:38,    220,    0.6,    6.7,   0.00,   0.00, 1000.8,   70.5, -999.0
25-11-2022, 00:10:48,    217,    0.4,    6.7,   0.00,   0.00, 1000.8,   70.5, -999.0
25-11-2022, 00:10:58,    203,    0.6,    6.7,   0.00,   0.00, 1000.8,   70.5, -999.0
25-11-2022, 00:11:07,    203,    1.0,    6.7,   0.00,   0.00, 1000.8,   70.6, -999.0
25-11-2022, 00:11:18,    216,    1.5,    6.7,   0.00,   0.00, 1000.8,   70.6, -999.0
25-11-2022, 00:11:28,    203,    0.7,    6.7,   0.00,   0.00, 1000.8,   70.6, -999.0
25-11-2022, 00:11:37,    202,    0.9,    6.7,   0.00,   0.00, 1000.8,   70.7, -999.0
25-11-2022, 00:11:47,    201,    1.1,    6.7,   0.00,   0.00, 1000.8,   70.7, -999.0
25-11-2022, 00:11:58,    201,    0.3,    6.6,   0.00,   0.00, 1000.9,   70.6, -999.0
25-11-2022, 00:12:07,    194,    1.0,    6.6,   0.00,   0.00, 1000.8,   70.6, -999.0
25-11-2022, 00:12:17,    230,    0.8,    6.6,   0.00,   0.00, 1000.8,   70.9, -999.0
25-11-2022, 00:12:27,    215,    1.3,    6.6,   0.00,   0.00, 1000.9,   70.9, -999.0
25-11-2022, 00:12:37,    193,    1.3,    6.5,   0.00,   0.00, 1000.8,   70.9, -999.0
25-11-2022, 00:12:47,    193,    0.0,    6.5,   0.00,   0.00, 1000.7,   70.6, -999.0
25-11-2022, 00:12:57,    193,    0.1,    6.5,   0.00,   0.00, 1000.8,   70.8, -999.0
25-11-2022, 00:13:08,    203,    0.8,    6.5,   0.00,   0.00, 1000.8,   71.0, -999.0
25-11-2022, 00:13:17,    194,    2.8,    6.6,   0.00,   0.00, 1000.8,   71.0, -999.0
25-11-2022, 00:13:27,    224,    5.5,    6.6,   0.00,   0.00, 1000.8,   70.9, -999.0
25-11-2022, 00:13:37,    246,    3.8,    6.7,   0.00,   0.00, 1000.8,   70.7, -999.0
25-11-2022, 00:13:47,    220,    3.5,    6.7,   0.00,   0.00, 1000.8,   70.6, -999.0
25-11-2022, 00:13:57,    220,    2.5,    6.8,   0.00,   0.00, 1000.8,   70.5, -999.0
25-11-2022, 00:14:07,    212,    1.4,    6.7,   0.00,   0.00, 1000.8,   70.3, -999.0
25-11-2022, 00:14:17,    216,    1.3,    6.7,   0.00,   0.00, 1000.8,   70.4, -999.0
25-11-2022, 00:14:27,    228,    2.5,    6.7,   0.00,   0.00, 1000.8,   70.3, -999.0
25-11-2022, 00:14:37,    202,    1.2,    6.8,   0.00,   0.00, 1000.8,   70.3, -999.0
25-11-2022, 00:14:47,    152,    1.7,    6.7,   0.00,   0.00, 1000.8,   70.3, -999.0
25-11-2022, 00:14:57,    210,    2.3,    6.8,   0.00,   0.00, 1000.8,   70.4, -999.0
25-11-2022, 00:15:07,    212,    4.1,    6.7,   0.00,   0.00, 1000.8,   70.3, -999.0
25-11-2022, 00:15:17,    174,    3.3,    6.8,   0.00,   0.00, 1000.8,   70.2, -999.0
25-11-2022, 00:15:27,    241,    0.2,    6.7,   0.00,   0.00, 1000.7,   70.0, -999.0
25-11-2022, 00:15:37,    209,    0.8,    6.8,   0.00,   0.00, 1000.8,   70.2, -999.0
25-11-2022, 00:15:47,    169,    2.7,    6.7,   0.00,   0.00, 1000.8,   70.2, -999.0
25-11-2022, 00:15:57,    173,    0.6,    6.7,   0.00,   0.00, 1000.7,   70.0, -999.0
25-11-2022, 00:16:07,    221,    0.3,    6.7,   0.00,   0.00, 1000.7,   70.0, -999.0
25-11-2022, 00:16:17,    220,    0.5,    6.8,   0.00,   0.00, 1000.8,   70.1, -999.0
25-11-2022, 00:16:27,    218,    0.7,    6.7,   0.00,   0.00, 1000.8,   70.2, -999.0
25-11-2022, 00:16:37,    207,    1.2,    6.8,   0.00,   0.00, 1000.8,   70.3, -999.0
25-11-2022, 00:16:46,    209,    0.2,    6.7,   0.00,   0.00, 1000.7,   70.3, -999.0
25-11-2022, 00:16:57,    207,    0.2,    6.6,   0.00,   0.00, 1000.7,   70.4, -999.0
25-11-2022, 00:17:08,    203,    0.5,    6.7,   0.00,   0.00, 1000.8,   70.4, -999.0
25-11-2022, 00:17:17,    220,    1.3,    6.7,   0.00,   0.00, 1000.8,   70.4, -999.0
25-11-2022, 00:17:27,    213,    0.6,    6.7,   0.00,   0.00, 1000.7,   70.2, -999.0
25-11-2022, 00:17:37,    208,    2.4,    6.8,   0.00,   0.00, 1000.8,   70.1, -999.0
25-11-2022, 00:17:47,    185,    1.6,    6.8,   0.00,   0.00, 1000.8,   70.2, -999.0
25-11-2022, 00:17:56,    216,    3.2,    6.8,   0.00,   0.00, 1000.8,   70.1, -999.0
25-11-2022, 00:18:07,    224,    2.1,    6.8,   0.00,   0.00, 1000.8,   70.0, -999.0
25-11-2022, 00:18:17,    215,    3.6,    6.8,   0.00,   0.00, 1000.8,   70.0, -999.0
25-11-2022, 00:18:26,    178,    1.4,    6.8,   0.00,   0.00, 1000.8,   69.9, -999.0
25-11-2022, 00:18:36,    209,    3.7,    6.8,   0.00,   0.00, 1000.8,   69.9, -999.0
25-11-2022, 00:18:47,    194,    1.7,    6.8,   0.00,   0.00, 1000.8,   69.8, -999.0
25-11-2022, 00:18:56,    240,    0.5,    6.8,   0.00,   0.00, 1000.7,   69.6, -999.0
25-11-2022, 00:19:06,    147,    0.5,    6.8,   0.00,   0.00, 1000.7,   69.5, -999.0
25-11-2022, 00:19:16,    266,    0.3,    6.8,   0.00,   0.00, 1000.8,   69.7, -999.0
25-11-2022, 00:19:26,    212,    1.2,    6.8,   0.00,   0.00, 1000.8,   69.8, -999.0
25-11-2022, 00:19:36,    168,    2.2,    6.9,   0.00,   0.00, 1000.8,   69.7, -999.0
25-11-2022, 00:19:46,    220,    2.2,    6.9,   0.00,   0.00, 1000.8,   69.6, -999.0
25-11-2022, 00:19:57,    201,    2.5,    6.9,   0.00,   0.00, 1000.8,   69.6, -999.0
25-11-2022, 00:20:06,    211,    2.4,    6.9,   0.00,   0.00, 1000.8,   69.5, -999.0
25-11-2022, 00:20:16,    201,    2.1,    6.9,   0.00,   0.00, 1000.8,   69.6, -999.0
25-11-2022, 00:20:26,    205,    4.7,    6.9,   0.00,   0.00, 1000.8,   69.4, -999.0
25-11-2022, 00:20:36,    188,    2.6,    6.8,   0.00,   0.00, 1000.8,   69.2, -999.0
25-11-2022, 00:20:46,    214,    2.2,    7.0,   0.00,   0.00, 1000.8,   69.1, -999.0
25-11-2022, 00:20:56,    212,    2.3,    6.9,   0.00,   0.00, 1000.8,   69.1, -999.0
25-11-2022, 00:21:06,    212,    1.6,    6.9,   0.00,   0.00, 1000.7,   69.1, -999.0
25-11-2022, 00:21:16,    212,    0.5,    6.9,   0.00,   0.00, 1000.7,   69.2, -999.0
25-11-2022, 00:21:26,    212,    1.3,    6.9,   0.00,   0.00, 1000.8,   69.3, -999.0
25-11-2022, 00:21:36,    237,    1.9,    6.9,   0.00,   0.00, 1000.8,   69.3, -999.0
25-11-2022, 00:21:46,    234,    0.5,    6.8,   0.00,   0.00, 1000.7,   69.0, -999.0
25-11-2022, 00:21:56,    213,    0.6,    6.8,   0.00,   0.00, 1000.7,   69.3, -999.0
25-11-2022, 00:22:06,    205,    0.6,    6.8,   0.00,   0.00, 1000.8,   69.3, -999.0
25-11-2022, 00:22:16,    234,    2.2,    6.8,   0.00,   0.00, 1000.8,   69.3, -999.0
25-11-2022, 00:22:26,    233,    1.5,    6.9,   0.00,   0.00, 1000.8,   69.3, -999.0
25-11-2022, 00:22:36,    187,    1.8,    6.9,   0.00,   0.00, 1000.8,   69.1, -999.0
25-11-2022, 00:22:46,    256,    3.3,    6.9,   0.00,   0.00, 1000.8,   69.3, -999.0
25-11-2022, 00:22:56,    210,    1.4,    6.9,   0.00,   0.00, 1000.8,   69.0, -999.0
25-11-2022, 00:23:06,    239,    2.7,    6.9,   0.00,   0.00, 1000.8,   69.0, -999.0
25-11-2022, 00:23:16,    213,    1.9,    6.9,   0.00,   0.00, 1000.8,   69.0, -999.0
25-11-2022, 00:23:26,    223,    2.0,    6.8,   0.00,   0.00, 1000.8,   69.0, -999.0
25-11-2022, 00:23:36,    223,    0.0,    6.8,   0.00,   0.00, 1000.7,   68.7, -999.0
25-11-2022, 00:23:46,    192,    0.9,    6.9,   0.00,   0.00, 1000.8,   69.1, -999.0
25-11-2022, 00:23:56,    211,    1.8,    6.9,   0.00,   0.00, 1000.8,   69.2, -999.0
25-11-2022, 00:24:06,    217,    2.7,    6.9,   0.00,   0.00, 1000.8,   69.0, -999.0
25-11-2022, 00:24:15,    203,    1.1,    7.0,   0.00,   0.00, 1000.8,   69.0, -999.0
25-11-2022, 00:24:26,    228,    1.1,    6.9,   0.00,   0.00, 1000.8,   68.9, -999.0
25-11-2022, 00:24:36,    209,    1.0,    7.0,   0.00,   0.00, 1000.8,   68.9, -999.0
25-11-2022, 00:24:45,    208,    0.7,    7.0,   0.00,   0.00, 1000.8,   68.9, -999.0
25-11-2022, 00:24:55,    239,    0.8,    6.9,   0.00,   0.00, 1000.9,   68.8, -999.0
25-11-2022, 00:25:06,    225,    1.8,    7.0,   0.00,   0.00, 1001.0,   68.9, -999.0
25-11-2022, 00:25:16,    203,    2.8,    6.9,   0.00,   0.00, 1000.9,   68.8, -999.0
25-11-2022, 00:25:25,    194,    0.8,    6.9,   0.00,   0.00, 1000.8,   68.7, -999.0
25-11-2022, 00:25:35,    162,    3.4,    7.0,   0.00,   0.00, 1000.9,   68.6, -999.0
25-11-2022, 00:25:46,    206,    2.5,    7.0,   0.00,   0.00, 1000.9,   68.6, -999.0
25-11-2022, 00:25:55,    285,    0.8,    7.0,   0.00,   0.00, 1000.9,   68.5, -999.0
25-11-2022, 00:26:05,    281,    0.2,    6.9,   0.00,   0.00, 1000.9,   68.4, -999.0
25-11-2022, 00:26:16,    222,    1.9,    6.9,   0.00,   0.00, 1000.9,   68.7, -999.0
25-11-2022, 00:26:25,    239,    3.0,    7.0,   0.00,   0.00, 1000.9,   68.5, -999.0
25-11-2022, 00:26:35,    207,    1.2,    7.0,   0.00,   0.00, 1001.0,   68.4, -999.0
25-11-2022, 00:26:45,    206,    0.3,    6.9,   0.00,   0.00, 1000.9,   68.3, -999.0
25-11-2022, 00:26:55,    206,    0.0,    6.9,   0.00,   0.00, 1000.8,   68.2, -999.0
25-11-2022, 00:27:05,    206,    0.0,    6.9,   0.00,   0.00, 1000.8,   68.1, -999.0
25-11-2022, 00:27:15,    251,    2.2,    6.9,   0.00,   0.00, 1001.0,   68.5, -999.0
25-11-2022, 00:27:25,    270,    1.6,    7.0,   0.00,   0.00, 1001.0,   68.5, -999.0
25-11-2022, 00:27:35,    264,    0.8,    7.0,   0.00,   0.00, 1001.0,   68.3, -999.0
25-11-2022, 00:27:45,    262,    1.1,    6.9,   0.00,   0.00, 1001.0,   68.4, -999.0
25-11-2022, 00:27:55,    228,    1.0,    6.9,   0.00,   0.00, 1001.0,   68.3, -999.0
25-11-2022, 00:28:05,    248,    2.6,    7.0,   0.00,   0.00, 1001.1,   68.4, -999.0
25-11-2022, 00:28:15,    249,    1.1,    7.0,   0.00,   0.00, 1001.0,   68.6, -999.0
25-11-2022, 00:28:25,    247,    0.5,    6.9,   0.00,   0.00, 1001.0,   68.5, -999.0
25-11-2022, 00:28:35,    248,    0.0,    6.9,   0.00,   0.00, 1000.9,   68.3, -999.0
25-11-2022, 00:28:45,    258,    1.5,    6.9,   0.00,   0.00, 1001.0,   68.5, -999.0
25-11-2022, 00:28:55,    211,    1.5,    7.0,   0.00,   0.00, 1001.0,   68.6, -999.0
25-11-2022, 00:29:05,    211,    0.4,    6.9,   0.00,   0.00, 1001.0,   68.4, -999.0
25-11-2022, 00:29:15,    250,    0.4,    6.8,   0.00,   0.00, 1001.0,   68.4, -999.0
25-11-2022, 00:29:25,    200,    0.5,    6.9,   0.00,   0.00, 1001.0,   68.5, -999.0
25-11-2022, 00:29:35,    242,    0.0,    6.9,   0.00,   0.00, 1001.0,   68.4, -999.0
25-11-2022, 00:29:45,    234,    1.9,    6.9,   0.00,   0.00, 1001.1,   68.6, -999.0
25-11-2022, 00:29:55,    177,    0.6,    6.9,   0.00,   0.00, 1001.0,   68.5, -999.0
25-11-2022, 00:30:05,    183,    1.2,    6.9,   0.00,   0.00, 1001.1,   68.6, -999.0
25-11-2022, 00:30:15,    287,    0.6,    6.9,   0.00,   0.00, 1001.1,   68.6, -999.0
25-11-2022, 00:30:25,    247,    0.9,    6.9,   0.00,   0.00, 1001.1,   68.5, -999.0
25-11-2022, 00:30:35,    177,    0.6,    6.9,   0.00,   0.00, 1001.1,   68.5, -999.0
25-11-2022, 00:30:45,    213,    2.1,    6.9,   0.00,   0.00, 1001.2,   68.7, -999.0
25-11-2022, 00:30:55,    236,    2.1,    6.9,   0.00,   0.00, 1001.2,   68.6, -999.0
25-11-2022, 00:31:05,    173,    1.8,    6.9,   0.00,   0.00, 1001.1,   68.6, -999.0
25-11-2022, 00:31:14,    197,    1.1,    6.9,   0.00,   0.00, 1001.1,   68.5, -999.0
25-11-2022, 00:31:25,    266,    0.5,    6.9,   0.00,   0.00, 1001.1,   68.4, -999.0
25-11-2022, 00:31:35,    249,    2.1,    6.9,   0.00,   0.00, 1001.1,   68.6, -999.0
25-11-2022, 00:31:44,    245,    2.2,    7.0,   0.00,   0.00, 1001.1,   68.7, -999.0
25-11-2022, 00:31:55,    248,    3.7,    7.0,   0.00,   0.00, 1001.1,   68.5, -999.0
25-11-2022, 00:32:05,    243,    2.0,    7.0,   0.00,   0.00, 1001.2,   68.6, -999.0
25-11-2022, 00:32:14,    261,    2.1,    7.0,   0.00,   0.00, 1001.2,   68.6, -999.0
25-11-2022, 00:32:24,    262,    3.5,    7.0,   0.00,   0.00, 1001.2,   68.5, -999.0
25-11-2022, 00:32:35,    243,    5.0,    7.0,   0.00,   0.00, 1001.2,   68.3, -999.0
25-11-2022, 00:32:45,    196,    2.2,    7.1,   0.00,   0.00, 1001.2,   68.2, -999.0
25-11-2022, 00:32:54,    217,    1.1,    7.0,   0.00,   0.00, 1001.2,   68.4, -999.0
25-11-2022, 00:33:04,    221,    2.5,    7.0,   0.00,   0.00, 1001.2,   68.3, -999.0
25-11-2022, 00:33:15,    202,    0.9,    7.0,   0.00,   0.00, 1001.2,   68.4, -999.0
25-11-2022, 00:33:24,    203,    0.0,    7.0,   0.00,   0.00, 1001.1,   68.0, -999.0
25-11-2022, 00:33:34,    268,    1.7,    6.9,   0.00,   0.00, 1001.2,   68.3, -999.0
25-11-2022, 00:33:44,    228,    0.5,    7.0,   0.00,   0.00, 1001.1,   68.3, -999.0
25-11-2022, 00:33:54,    239,    1.4,    6.9,   0.00,   0.00, 1001.1,   68.3, -999.0
25-11-2022, 00:34:04,    214,    1.8,    7.0,   0.00,   0.00, 1001.2,   68.4, -999.0
25-11-2022, 00:34:14,    225,    1.7,    7.0,   0.00,   0.00, 1001.2,   68.4, -999.0
25-11-2022, 00:34:24,    236,    2.1,    7.0,   0.00,   0.00, 1001.2,   68.4, -999.0
25-11-2022, 00:34:34,    219,    1.0,    6.9,   0.00,   0.00, 1001.1,   68.3, -999.0
25-11-2022, 00:34:44,    218,    0.1,    6.9,   0.00,   0.00, 1001.0,   68.2, -999.0
25-11-2022, 00:34:54,    235,    1.1,    6.9,   0.00,   0.00, 1001.1,   68.4, -999.0
25-11-2022, 00:35:04,    244,    1.4,    7.0,   0.00,   0.00, 1001.2,   68.5, -999.0
25-11-2022, 00:35:14,    234,    2.6,    6.9,   0.00,   0.00, 1001.2,   68.5, -999.0
25-11-2022, 00:35:24,    234,    3.3,    6.9,   0.00,   0.00, 1001.2,   68.5, -999.0
25-11-2022, 00:35:34,    211,    2.3,    7.0,   0.00,   0.00, 1001.2,   68.5, -999.0
25-11-2022, 00:35:44,    218,    2.9,    7.0,   0.00,   0.00, 1001.2,   68.5, -999.0
25-11-2022, 00:35:54,    194,    2.1,    7.0,   0.00,   0.00, 1001.2,   68.5, -999.0
25-11-2022, 00:36:04,    193,    0.8,    6.9,   0.00,   0.00, 1001.2,   68.5, -999.0
25-11-2022, 00:36:14,    226,    0.3,    6.9,   0.00,   0.00, 1001.1,   68.5, -999.0
25-11-2022, 00:36:24,    199,    0.3,    6.9,   0.00,   0.00, 1001.2,   68.4, -999.0
25-11-2022, 00:36:34,    199,    0.1,    6.9,   0.00,   0.00, 1001.1,   68.4, -999.0
25-11-2022, 00:36:44,    199,    0.0,    6.8,   0.00,   0.00, 1001.1,   68.1, -999.0
25-11-2022, 00:36:54,    219,    0.0,    6.8,   0.00,   0.00, 1001.1,   68.2, -999.0
25-11-2022, 00:37:04,    258,    0.9,    6.9,   0.00,   0.00, 1001.2,   68.5, -999.0
25-11-2022, 00:37:14,    199,    0.4,    6.9,   0.00,   0.00, 1001.2,   68.6, -999.0
25-11-2022, 00:37:24,    229,    0.2,    6.9,   0.00,   0.00, 1001.2,   68.7, -999.0
25-11-2022, 00:37:34,    229,    0.2,    6.8,   0.00,   0.00, 1001.2,   68.7, -999.0
25-11-2022, 00:37:44,    210,    0.3,    6.8,   0.00,   0.00, 1001.2,   68.6, -999.0
25-11-2022, 00:37:54,    235,    1.5,    6.9,   0.00,   0.00, 1001.2,   68.9, -999.0
25-11-2022, 00:38:04,    249,    2.4,    6.9,   0.00,   0.00, 1001.3,   68.9, -999.0
25-11-2022, 00:38:13,    238,    2.8,    6.9,   0.00,   0.00, 1001.2,   68.9, -999.0
25-11-2022, 00:38:24,    216,    3.4,    6.9,   0.00,   0.00, 1001.2,   68.8, -999.0
25-11-2022, 00:38:34,    232,    2.1,    6.9,   0.00,   0.00, 1001.3,   68.8, -999.0
25-11-2022, 00:38:43,    245,    4.0,    6.8,   0.00,   0.00, 1001.3,   68.8, -999.0
25-11-2022, 00:38:53,    224,    3.0,    6.9,   0.00,   0.00, 1001.3,   68.8, -999.0
25-11-2022, 00:39:04,    255,    1.6,    7.0,   0.00,   0.00, 1001.3,   68.8, -999.0
25-11-2022, 00:39:13,    185,    0.8,    7.0,   0.00,   0.00, 1001.3,   68.8, -999.0
25-11-2022, 00:39:23,    229,    0.3,    6.9,   0.00,   0.00, 1001.3,   68.8, -999.0
25-11-2022, 00:39:34,    230,    1.7,    6.9,   0.00,   0.00, 1001.3,   68.9, -999.0
25-11-2022, 00:39:44,    230,    0.4,    6.8,   0.00,   0.00, 1001.3,   68.8, -999.0
25-11-2022, 00:39:53,    224,    0.6,    6.8,   0.00,   0.00, 1001.3,   68.7, -999.0
25-11-2022, 00:40:03,    226,    1.1,    6.9,   0.00,   0.00, 1001.3,   69.0, -999.0
25-11-2022, 00:40:14,    226,    2.4,    6.9,   0.00,   0.00, 1001.3,   69.0, -999.0
25-11-2022, 00:40:23,    236,    2.3,    6.9,   0.00,   0.00, 1001.3,   68.9, -999.0
25-11-2022, 00:40:33,    227,    2.1,    6.9,   0.00,   0.00, 1001.3,   68.9, -999.0
25-11-2022, 00:40:43,    228,    1.6,    6.9,   0.00,   0.00, 1001.3,   69.0, -999.0
25-11-2022, 00:40:53,    256,    2.7,    6.9,   0.00,   0.00, 1001.3,   69.0, -999.0
25-11-2022, 00:41:03,    245,    2.4,    6.9,   0.00,   0.00, 1001.4,   69.0, -999.0
25-11-2022, 00:41:13,    243,    0.5,    6.9,   0.00,   0.00, 1001.4,   69.1, -999.0
25-11-2022, 00:41:23,    238,    2.8,    6.9,   0.00,   0.00, 1001.3,   69.2, -999.0
25-11-2022, 00:41:33,    228,    1.4,    6.9,   0.00,   0.00, 1001.3,   69.1, -999.0
25-11-2022, 00:41:43,    213,    1.9,    6.9,   0.00,   0.00, 1001.4,   69.1, -999.0
25-11-2022, 00:41:53,    215,    0.2,    6.8,   0.00,   0.00, 1001.3,   69.1, -999.0
25-11-2022, 00:42:03,    230,    0.4,    6.8,   0.00,   0.00, 1001.3,   69.1, -999.0
25-11-2022, 00:42:13,    237,    0.2,    6.8,   0.00,   0.00, 1001.3,   69.0, -999.0
25-11-2022, 00:42:23,    242,    0.4,    6.8,   0.00,   0.00, 1001.3,   69.2, -999.0
25-11-2022, 00:42:33,    148,    1.0,    6.8,   0.00,   0.00, 1001.3,   69.1, -999.0
25-11-2022, 00:42:43,    210,    2.6,    6.8,   0.00,   0.00, 1001.3,   69.4, -999.0
25-11-2022, 00:42:53,    186,    1.0,    6.8,   0.00,   0.00, 1001.3,   69.2, -999.0
25-11-2022, 00:43:03,    223,    2.2,    6.9,   0.00,   0.00, 1001.3,   69.2, -999.0
25-11-2022, 00:43:14,    200,    2.3,    6.9,   0.00,   0.00, 1001.3,   69.2, -999.0
25-11-2022, 00:43:23,    197,    0.7,    6.9,   0.00,   0.00, 1001.3,   69.2, -999.0
25-11-2022, 00:43:33,    199,    1.9,    6.9,   0.00,   0.00, 1001.3,   69.3, -999.0
25-11-2022, 00:43:43,    231,    1.5,    6.9,   0.00,   0.00, 1001.3,   69.3, -999.0
25-11-2022, 00:43:53,    221,    0.9,    6.9,   0.00,   0.00, 1001.3,   69.3, -999.0
25-11-2022, 00:44:03,    223,    0.9,    6.9,   0.00,   0.00, 1001.3,   69.3, -999.0
25-11-2022, 00:44:13,    210,    0.0,    6.8,   0.00,   0.00, 1001.2,   69.0, -999.0
25-11-2022, 00:44:23,    224,    0.7,    6.8,   0.00,   0.00, 1001.3,   69.4, -999.0
25-11-2022, 00:44:33,    223,    0.6,    6.8,   0.00,   0.00, 1001.3,   69.4, -999.0
25-11-2022, 00:44:43,    219,    1.5,    6.8,   0.00,   0.00, 1001.3,   69.4, -999.0
25-11-2022, 00:44:53,    240,    4.7,    6.8,   0.00,   0.00, 1001.4,   69.4, -999.0
25-11-2022, 00:45:02,    210,    2.8,    6.8,   0.00,   0.00, 1001.3,   69.4, -999.0
25-11-2022, 00:45:13,    222,    2.6,    6.8,   0.00,   0.00, 1001.3,   69.3, -999.0
25-11-2022, 00:45:23,    202,    2.8,    6.8,   0.00,   0.00, 1001.4,   69.3, -999.0
25-11-2022, 00:45:32,    192,    2.1,    6.9,   0.00,   0.00, 1001.4,   69.3, -999.0
25-11-2022, 00:45:42,    201,    1.3,    6.9,   0.00,   0.00, 1001.4,   69.3, -999.0
25-11-2022, 00:45:53,    233,    2.1,    6.8,   0.00,   0.00, 1001.3,   69.3, -999.0
25-11-2022, 00:46:02,    194,    0.8,    6.8,   0.00,   0.00, 1001.3,   69.4, -999.0
25-11-2022, 00:46:12,    237,    1.5,    6.8,   0.00,   0.00, 1001.3,   69.4, -999.0
25-11-2022, 00:46:22,    260,    2.5,    6.8,   0.00,   0.00, 1001.3,   69.5, -999.0
25-11-2022, 00:46:33,    232,    4.4,    6.9,   0.00,   0.00, 1001.3,   69.5, -999.0
25-11-2022, 00:46:42,    208,    2.9,    6.9,   0.00,   0.00, 1001.3,   69.3, -999.0
25-11-2022, 00:46:52,    207,    0.6,    6.8,   0.00,   0.00, 1001.3,   69.1, -999.0